Time,TemperatureF,DewpointF,PressureIn,WindDirection,WindDirectionDegrees,WindSpeedMPH,WindSpeedGustMPH,Humidity,HourlyPrecipIn,Conditions,Clouds,dailyrainin,SoftwareType,DateUTC
2013-01-31 00:00:00,49.3,47.9,29.44,SW,225,4.0,8.5,95,0.00,,,0.00,WUHU216HW,2013-01-31 05:00:00,
2013-01-31 00:03:00,49.3,47.9,29.44,WSW,248,4.7,6.9,95,0.00,,,0.00,WUHU216HW,2013-01-31 05:03:00,
2013-01-31 00:08:00,49.3,47.9,29.43,WSW,248,4.7,6.3,95,0.00,,,0.00,WUHU216HW,2013-01-31 05:08:00,
2013-01-31 00:13:00,49.3,47.9,29.43,WNW,293,1.8,7.4,95,0.00,,,0.00,WUHU216HW,2013-01-31 05:13:00,
2013-01-31 00:18:00,49.5,48.1,29.42,SW,225,6.7,7.4,95,0.00,,,0.00,WUHU216HW,2013-01-31 05:18:00,
2013-01-31 00:23:00,49.7,48.2,29.42,West,270,6.7,8.9,95,0.00,,,0.00,WUHU216HW,2013-01-31 05:23:00,
2013-01-31 00:28:00,49.9,48.4,29.41,SW,225,8.7,8.9,95,0.00,,,0.00,WUHU216HW,2013-01-31 05:28:00,
2013-01-31 00:33:00,50.0,48.6,29.40,SSW,203,5.6,9.2,95,0.00,,,0.00,WUHU216HW,2013-01-31 05:33:00,
2013-01-31 00:38:00,50.2,48.8,29.41,West,270,8.1,9.2,95,0.00,,,0.00,WUHU216HW,2013-01-31 05:38:00,
2013-01-31 00:43:00,50.8,49.3,29.41,SW,225,4.9,10.5,95,0.00,,,0.00,WUHU216HW,2013-01-31 05:43:00,
2013-01-31 00:48:00,51.3,49.9,29.41,NW,315,6.5,11.4,95,0.00,,,0.00,WUHU216HW,2013-01-31 05:48:00,
2013-01-31 00:53:00,51.5,50.0,29.40,WNW,293,7.6,11.4,95,0.00,,,0.00,WUHU216HW,2013-01-31 05:53:00,
2013-01-31 00:58:00,51.5,50.0,29.39,WNW,293,4.0,11.0,95,0.00,,,0.00,WUHU216HW,2013-01-31 05:58:00,
2013-01-31 01:03:00,51.3,49.6,29.39,NNW,338,6.3,9.4,94,0.00,,,0.00,WUHU216HW,2013-01-31 06:03:00,
2013-01-31 01:08:00,51.1,49.4,29.39,WSW,248,5.4,9.6,94,0.00,,,0.00,WUHU216HW,2013-01-31 06:08:00,
2013-01-31 01:13:00,51.1,49.4,29.38,NW,315,7.6,10.7,94,0.00,,,0.00,WUHU216HW,2013-01-31 06:13:00,
2013-01-31 01:18:00,51.1,49.4,29.37,SW,225,4.7,10.7,94,0.00,,,0.00,WUHU216HW,2013-01-31 06:18:00,
2013-01-31 01:23:00,51.1,49.4,29.37,WSW,248,4.9,9.8,94,0.00,,,0.00,WUHU216HW,2013-01-31 06:23:00,
2013-01-31 01:28:00,50.9,49.2,29.36,SW,225,4.0,7.6,94,0.00,,,0.00,WUHU216HW,2013-01-31 06:28:00,
2013-01-31 01:33:00,50.8,49.1,29.35,West,270,5.1,7.6,94,0.00,,,0.00,WUHU216HW,2013-01-31 06:33:00,
2013-01-31 01:38:00,50.6,48.9,29.34,ESE,113,2.9,8.5,94,0.00,,,0.00,WUHU216HW,2013-01-31 06:38:00,
2013-01-31 01:43:00,50.2,48.3,29.34,SSE,158,4.0,8.5,93,0.00,,,0.00,WUHU216HW,2013-01-31 06:43:00,
2013-01-31 01:48:00,50.2,48.5,29.33,WSW,248,6.0,6.9,94,0.00,,,0.00,WUHU216HW,2013-01-31 06:48:00,
2013-01-31 01:53:00,50.2,48.5,29.32,SW,225,4.7,8.7,94,0.00,,,0.00,WUHU216HW,2013-01-31 06:53:00,
2013-01-31 01:58:00,50.2,48.5,29.31,SSE,158,3.4,8.7,94,0.00,,,0.00,WUHU216HW,2013-01-31 06:58:00,
2013-01-31 02:03:00,50.0,48.3,29.30,NW,315,6.3,7.6,94,0.00,,,0.00,WUHU216HW,2013-01-31 07:03:00,
2013-01-31 02:08:00,50.2,48.5,29.29,WSW,248,7.2,7.6,94,0.00,,,0.00,WUHU216HW,2013-01-31 07:08:00,
2013-01-31 02:13:00,50.6,48.9,29.28,SW,225,8.1,8.7,94,0.00,,,0.00,WUHU216HW,2013-01-31 07:13:00,
2013-01-31 02:18:00,50.9,49.2,29.28,SW,225,6.9,8.7,94,0.00,,,0.00,WUHU216HW,2013-01-31 07:18:00,
2013-01-31 02:23:00,51.3,49.6,29.28,SSW,203,4.5,8.9,94,0.01,,,0.01,WUHU216HW,2013-01-31 07:23:00,
2013-01-31 02:29:00,51.5,49.8,29.27,WSW,248,6.5,8.9,94,0.01,,,0.01,WUHU216HW,2013-01-31 07:29:00,
2013-01-31 02:34:00,51.7,50.0,29.25,ENE,68,6.9,9.8,94,0.02,,,0.02,WUHU216HW,2013-01-31 07:34:00,
2013-01-31 02:39:00,51.8,50.1,29.25,West,270,6.9,10.5,94,0.02,,,0.02,WUHU216HW,2013-01-31 07:39:00,
2013-01-31 02:44:00,52.0,50.3,29.24,SW,225,9.8,10.5,94,0.02,,,0.02,WUHU216HW,2013-01-31 07:44:00,
2013-01-31 02:49:00,52.2,50.5,29.24,South,180,8.7,11.4,94,0.02,,,0.02,WUHU216HW,2013-01-31 07:49:00,
2013-01-31 02:54:00,52.4,50.7,29.23,WNW,293,7.6,11.9,94,0.02,,,0.02,WUHU216HW,2013-01-31 07:54:00,
2013-01-31 02:59:00,52.4,50.7,29.22,WNW,293,8.1,11.9,94,0.02,,,0.02,WUHU216HW,2013-01-31 07:59:00,
2013-01-31 03:04:00,52.6,50.9,29.21,South,180,7.2,10.5,94,0.02,,,0.02,WUHU216HW,2013-01-31 08:04:00,
2013-01-31 03:09:00,52.6,50.6,29.20,SW,225,6.3,9.8,93,0.02,,,0.02,WUHU216HW,2013-01-31 08:09:00,
2013-01-31 03:14:00,52.6,50.6,29.19,NW,315,11.6,11.6,93,0.02,,,0.02,WUHU216HW,2013-01-31 08:14:00,
2013-01-31 03:19:00,52.6,50.6,29.20,SSW,203,4.7,11.6,93,0.02,,,0.02,WUHU216HW,2013-01-31 08:19:00,
2013-01-31 03:24:00,52.6,50.6,29.19,West,270,9.4,11.0,93,0.01,,,0.02,WUHU216HW,2013-01-31 08:24:00,
2013-01-31 03:29:00,52.7,50.8,29.18,West,270,10.1,10.1,93,0.01,,,0.03,WUHU216HW,2013-01-31 08:29:00,
2013-01-31 03:34:00,52.6,50.6,29.18,WSW,248,8.3,10.7,93,0.02,,,0.04,WUHU216HW,2013-01-31 08:34:00,
2013-01-31 03:39:00,52.7,51.0,29.17,SW,225,6.9,10.7,94,0.03,,,0.05,WUHU216HW,2013-01-31 08:39:00,
2013-01-31 03:44:00,52.6,50.6,29.16,West,270,6.5,11.2,93,0.05,,,0.07,WUHU216HW,2013-01-31 08:44:00,
2013-01-31 03:49:00,52.7,51.0,29.16,West,270,7.6,11.2,94,0.07,,,0.09,WUHU216HW,2013-01-31 08:49:00,
2013-01-31 03:54:00,52.7,51.3,29.17,SW,225,7.8,12.1,95,0.07,,,0.09,WUHU216HW,2013-01-31 08:54:00,
2013-01-31 03:59:00,52.9,51.5,29.17,NNW,338,10.5,12.1,95,0.08,,,0.10,WUHU216HW,2013-01-31 08:59:00,
2013-01-31 04:04:00,52.9,51.5,29.17,SSW,203,11.4,11.4,95,0.09,,,0.11,WUHU216HW,2013-01-31 09:04:00,
2013-01-31 04:09:00,52.7,51.3,29.18,South,180,7.6,11.4,95,0.10,,,0.12,WUHU216HW,2013-01-31 09:09:00,
2013-01-31 04:14:00,53.1,51.7,29.20,NW,315,8.7,13.9,95,0.10,,,0.12,WUHU216HW,2013-01-31 09:14:00,
2013-01-31 04:19:00,53.6,52.5,29.23,NW,315,11.4,16.3,96,0.12,,,0.14,WUHU216HW,2013-01-31 09:19:00,
2013-01-31 04:24:00,54.0,52.6,29.24,NW,315,16.6,19.7,95,0.13,,,0.16,WUHU216HW,2013-01-31 09:24:00,
2013-01-31 04:29:00,53.6,52.2,29.24,NW,315,11.6,19.7,95,0.13,,,0.17,WUHU216HW,2013-01-31 09:29:00,
2013-01-31 04:34:00,52.6,50.2,29.24,NW,315,12.1,17.2,92,0.14,,,0.19,WUHU216HW,2013-01-31 09:34:00,
2013-01-31 04:39:00,52.6,50.9,29.24,NW,315,12.3,19.2,94,0.14,,,0.20,WUHU216HW,2013-01-31 09:39:00,
2013-01-31 04:44:00,52.9,51.5,29.23,WNW,293,9.6,19.2,95,0.14,,,0.22,WUHU216HW,2013-01-31 09:44:00,
2013-01-31 04:49:00,53.5,52.0,29.23,NW,315,5.6,13.4,95,0.13,,,0.22,WUHU216HW,2013-01-31 09:49:00,
2013-01-31 04:54:00,53.8,52.4,29.22,West,270,10.1,11.6,95,0.14,,,0.23,WUHU216HW,2013-01-31 09:54:00,
2013-01-31 04:59:00,54.2,52.7,29.22,NW,315,4.7,10.7,95,0.14,,,0.24,WUHU216HW,2013-01-31 09:59:00,
2013-01-31 05:04:00,54.0,52.6,29.22,NW,315,5.1,10.1,95,0.15,,,0.26,WUHU216HW,2013-01-31 10:04:00,
2013-01-31 05:09:00,53.8,52.4,29.21,WNW,293,5.4,11.0,95,0.14,,,0.26,WUHU216HW,2013-01-31 10:09:00,
2013-01-31 05:14:00,53.6,52.2,29.21,West,270,6.7,11.0,95,0.14,,,0.27,WUHU216HW,2013-01-31 10:14:00,
2013-01-31 05:19:00,53.6,51.9,29.21,NNW,338,3.8,8.7,94,0.14,,,0.28,WUHU216HW,2013-01-31 10:19:00,
2013-01-31 05:24:00,53.5,51.8,29.22,WNW,293,3.6,8.5,94,0.12,,,0.29,WUHU216HW,2013-01-31 10:24:00,
2013-01-31 05:29:00,53.3,51.6,29.22,NW,315,7.8,8.5,94,0.13,,,0.31,WUHU216HW,2013-01-31 10:29:00,
2013-01-31 05:34:00,53.3,51.6,29.21,NW,315,6.9,7.8,94,0.14,,,0.33,WUHU216HW,2013-01-31 10:34:00,
2013-01-31 05:39:00,53.3,51.6,29.21,WSW,248,2.0,7.8,94,0.13,,,0.34,WUHU216HW,2013-01-31 10:39:00,
2013-01-31 05:44:00,53.3,51.6,29.21,WNW,293,0.9,5.6,94,0.12,,,0.34,WUHU216HW,2013-01-31 10:44:00,
2013-01-31 05:49:00,52.4,50.0,29.20,West,270,2.7,4.7,92,0.12,,,0.36,WUHU216HW,2013-01-31 10:49:00,
2013-01-31 05:54:00,50.8,48.2,29.20,West,270,2.5,5.4,91,0.13,,,0.36,WUHU216HW,2013-01-31 10:54:00,
2013-01-31 05:59:00,50.4,48.1,29.19,WNW,293,3.4,5.4,92,0.12,,,0.36,WUHU216HW,2013-01-31 10:59:00,
2013-01-31 06:04:00,50.0,47.7,29.20,West,270,1.8,4.3,92,0.10,,,0.36,WUHU216HW,2013-01-31 11:04:00,
2013-01-31 06:09:00,49.7,47.4,29.20,NW,315,3.4,7.4,92,0.09,,,0.36,WUHU216HW,2013-01-31 11:09:00,
2013-01-31 06:14:00,49.9,47.9,29.20,WSW,248,1.8,7.4,93,0.09,,,0.36,WUHU216HW,2013-01-31 11:14:00,
2013-01-31 06:19:00,49.7,47.4,29.21,West,270,4.9,5.4,92,0.08,,,0.36,WUHU216HW,2013-01-31 11:19:00,
2013-01-31 06:24:00,49.3,47.1,29.20,SSW,203,2.2,6.3,92,0.06,,,0.36,WUHU216HW,2013-01-31 11:24:00,
2013-01-31 06:29:00,49.9,48.2,29.21,North,0,2.5,6.3,94,0.04,,,0.36,WUHU216HW,2013-01-31 11:29:00,
2013-01-31 06:34:00,49.1,46.6,29.21,WNW,293,2.0,6.7,91,0.03,,,0.36,WUHU216HW,2013-01-31 11:34:00,
2013-01-31 06:39:00,48.6,46.5,29.21,WSW,248,4.0,6.7,92,0.02,,,0.36,WUHU216HW,2013-01-31 11:39:00,
2013-01-31 06:44:00,47.9,45.5,29.21,WSW,248,3.4,7.6,91,0.01,,,0.36,WUHU216HW,2013-01-31 11:44:00,
2013-01-31 06:49:00,47.7,45.8,29.21,SSW,203,2.7,7.6,93,0.00,,,0.36,WUHU216HW,2013-01-31 11:49:00,
2013-01-31 06:54:00,47.5,45.6,29.21,WNW,293,5.6,6.3,93,0.00,,,0.36,WUHU216HW,2013-01-31 11:54:00,
2013-01-31 06:59:00,49.0,47.4,29.23,WNW,293,8.9,11.2,94,0.00,,,0.36,WUHU216HW,2013-01-31 11:59:00,
2013-01-31 07:04:00,50.4,49.0,29.24,WNW,293,6.9,16.6,95,0.00,,,0.36,WUHU216HW,2013-01-31 12:04:00,
2013-01-31 07:09:00,50.8,48.4,29.26,NNE,23,5.1,16.6,92,0.00,,,0.36,WUHU216HW,2013-01-31 12:09:00,
2013-01-31 07:14:00,50.2,45.2,29.26,NNE,23,4.9,10.7,83,0.00,,,0.36,WUHU216HW,2013-01-31 12:14:00,
2013-01-31 07:19:00,49.7,42.4,29.27,NW,315,6.9,12.8,76,0.00,,,0.36,WUHU216HW,2013-01-31 12:19:00,
2013-01-31 07:24:00,49.3,42.4,29.28,North,0,3.4,12.8,77,0.00,,,0.36,WUHU216HW,2013-01-31 12:24:00,
2013-01-31 07:29:00,48.8,41.1,29.29,WNW,293,8.7,9.6,75,0.00,,,0.36,WUHU216HW,2013-01-31 12:29:00,
2013-01-31 07:34:00,48.6,41.0,29.30,NW,315,4.7,9.4,75,0.00,,,0.36,WUHU216HW,2013-01-31 12:34:00,
2013-01-31 07:39:00,48.2,39.3,29.30,NNW,338,6.3,9.4,71,0.00,,,0.36,WUHU216HW,2013-01-31 12:39:00,
2013-01-31 07:44:00,48.2,37.7,29.31,ENE,68,5.8,10.3,67,0.00,,,0.36,WUHU216HW,2013-01-31 12:44:00,
2013-01-31 07:49:00,48.2,38.2,29.31,North,0,4.7,10.3,68,0.00,,,0.36,WUHU216HW,2013-01-31 12:49:00,
2013-01-31 07:54:00,47.9,37.5,29.32,NNW,338,5.4,10.5,67,0.00,,,0.36,WUHU216HW,2013-01-31 12:54:00,
2013-01-31 07:59:00,48.6,38.1,29.33,West,270,5.4,10.5,67,0.00,,,0.36,WUHU216HW,2013-01-31 12:59:00,
2013-01-31 08:04:00,48.8,37.5,29.33,NW,315,5.8,6.9,65,0.00,,,0.36,WUHU216HW,2013-01-31 13:04:00,
2013-01-31 08:09:00,48.2,37.4,29.34,West,270,4.9,7.6,66,0.00,,,0.36,WUHU216HW,2013-01-31 13:09:00,
2013-01-31 08:14:00,48.1,38.0,29.35,NNW,338,5.8,7.6,68,0.00,,,0.36,WUHU216HW,2013-01-31 13:14:00,
2013-01-31 08:19:00,47.9,38.2,29.35,NW,315,3.8,7.6,69,0.00,,,0.36,WUHU216HW,2013-01-31 13:19:00,
2013-01-31 08:24:00,47.7,37.3,29.36,WSW,248,6.7,9.2,67,0.00,,,0.36,WUHU216HW,2013-01-31 13:24:00,
2013-01-31 08:29:00,47.5,36.7,29.36,SW,225,5.4,9.2,66,0.00,,,0.36,WUHU216HW,2013-01-31 13:29:00,
2013-01-31 08:34:00,47.7,36.1,29.36,NNW,338,4.0,10.1,64,0.00,,,0.36,WUHU216HW,2013-01-31 13:34:00,
2013-01-31 08:39:00,47.7,34.9,29.37,WSW,248,4.5,10.1,61,0.00,,,0.36,WUHU216HW,2013-01-31 13:39:00,
2013-01-31 08:44:00,47.7,34.9,29.37,WNW,293,9.2,11.4,61,0.00,,,0.36,WUHU216HW,2013-01-31 13:44:00,
2013-01-31 08:50:00,47.9,34.7,29.38,NW,315,5.6,11.4,60,0.00,,,0.36,WUHU216HW,2013-01-31 13:50:00,
2013-01-31 08:55:00,47.7,34.6,29.38,North,0,4.0,10.5,60,0.00,,,0.36,WUHU216HW,2013-01-31 13:55:00,
2013-01-31 09:00:00,47.9,35.1,29.39,NNW,338,3.1,9.2,61,0.00,,,0.36,WUHU216HW,2013-01-31 14:00:00,
2013-01-31 09:05:00,47.5,34.7,29.39,North,0,9.6,10.3,61,0.00,,,0.36,WUHU216HW,2013-01-31 14:05:00,
2013-01-31 09:10:00,47.3,33.8,29.41,WNW,293,5.6,10.5,59,0.00,,,0.36,WUHU216HW,2013-01-31 14:10:00,
2013-01-31 09:15:00,47.2,32.7,29.42,NNW,338,6.9,10.5,57,0.00,,,0.36,WUHU216HW,2013-01-31 14:15:00,
2013-01-31 09:20:00,46.8,32.3,29.42,NNW,338,6.3,8.3,57,0.00,,,0.36,WUHU216HW,2013-01-31 14:20:00,
2013-01-31 09:25:00,46.8,32.3,29.43,North,0,6.3,7.6,57,0.00,,,0.36,WUHU216HW,2013-01-31 14:25:00,
2013-01-31 09:30:00,46.4,32.0,29.44,South,180,3.4,9.2,57,0.00,,,0.36,WUHU216HW,2013-01-31 14:30:00,
2013-01-31 09:35:00,46.4,32.0,29.44,WNW,293,3.8,9.2,57,0.00,,,0.36,WUHU216HW,2013-01-31 14:35:00,
2013-01-31 09:40:00,46.3,31.3,29.45,NE,45,2.9,6.9,56,0.00,,,0.36,WUHU216HW,2013-01-31 14:40:00,
2013-01-31 09:45:00,46.3,31.8,29.45,NNW,338,5.4,6.5,57,0.00,,,0.36,WUHU216HW,2013-01-31 14:45:00,
2013-01-31 09:50:00,46.3,30.9,29.45,NNE,23,6.5,9.4,55,0.00,,,0.36,WUHU216HW,2013-01-31 14:50:00,
2013-01-31 09:55:00,46.1,31.1,29.46,North,0,4.5,9.4,56,0.00,,,0.36,WUHU216HW,2013-01-31 14:55:00,
2013-01-31 10:01:00,45.7,30.9,29.46,NE,45,3.8,7.8,56,0.00,,,0.36,WUHU216HW,2013-01-31 15:01:00,
2013-01-31 10:06:00,45.5,30.7,29.47,NNE,23,9.2,9.2,56,0.00,,,0.36,WUHU216HW,2013-01-31 15:06:00,
2013-01-31 10:11:00,45.9,30.6,29.47,WSW,248,6.3,9.2,55,0.00,,,0.36,WUHU216HW,2013-01-31 15:11:00,
2013-01-31 10:16:00,46.1,29.3,29.47,NW,315,12.1,12.1,52,0.00,,,0.36,WUHU216HW,2013-01-31 15:16:00,
2013-01-31 10:21:00,46.1,29.3,29.48,NNE,23,2.2,12.1,52,0.00,,,0.36,WUHU216HW,2013-01-31 15:21:00,
2013-01-31 10:26:00,46.1,28.4,29.48,NNE,23,4.0,12.1,50,0.00,,,0.36,WUHU216HW,2013-01-31 15:26:00,
2013-01-31 10:31:00,46.3,28.6,29.48,North,0,4.0,8.5,50,0.00,,,0.36,WUHU216HW,2013-01-31 15:31:00,
2013-01-31 10:36:00,46.4,28.8,29.48,NNE,23,4.0,12.1,50,0.00,,,0.36,WUHU216HW,2013-01-31 15:36:00,
2013-01-31 10:41:00,46.8,29.6,29.49,NNW,338,4.7,12.1,51,0.00,,,0.36,WUHU216HW,2013-01-31 15:41:00,
2013-01-31 10:46:00,47.0,29.3,29.49,NW,315,6.9,6.9,50,0.00,,,0.36,WUHU216HW,2013-01-31 15:46:00,
2013-01-31 10:51:00,47.2,28.4,29.49,WNW,293,4.5,11.4,48,0.00,,,0.36,WUHU216HW,2013-01-31 15:51:00,
2013-01-31 10:56:00,47.3,29.1,29.49,NW,315,3.6,14.3,49,0.00,,,0.36,WUHU216HW,2013-01-31 15:56:00,
2013-01-31 11:01:00,47.5,28.7,29.50,West,270,4.0,14.3,48,0.00,,,0.36,WUHU216HW,2013-01-31 16:01:00,
2013-01-31 11:06:00,47.9,27.9,29.49,North,0,10.1,11.6,46,0.00,,,0.36,WUHU216HW,2013-01-31 16:06:00,
2013-01-31 11:11:00,47.7,27.3,29.50,WNW,293,11.2,13.4,45,0.00,,,0.36,WUHU216HW,2013-01-31 16:11:00,
2013-01-31 11:16:00,47.7,26.7,29.50,North,0,4.5,16.3,44,0.00,,,0.36,WUHU216HW,2013-01-31 16:16:00,
2013-01-31 11:21:00,47.7,26.7,29.50,North,0,5.4,16.3,44,0.00,,,0.36,WUHU216HW,2013-01-31 16:21:00,
2013-01-31 11:26:00,47.9,27.4,29.50,WNW,293,5.4,9.2,45,0.00,,,0.36,WUHU216HW,2013-01-31 16:26:00,
2013-01-31 11:31:00,48.1,27.5,29.50,NNE,23,4.7,12.5,45,0.00,,,0.36,WUHU216HW,2013-01-31 16:31:00,
2013-01-31 11:36:00,48.4,27.4,29.50,WNW,293,5.6,12.5,44,0.00,,,0.36,WUHU216HW,2013-01-31 16:36:00,
2013-01-31 11:41:00,48.6,27.6,29.50,WSW,248,4.7,11.6,44,0.00,,,0.36,WUHU216HW,2013-01-31 16:41:00,
2013-01-31 11:46:00,48.8,26.7,29.51,NNW,338,5.8,10.5,42,0.00,,,0.36,WUHU216HW,2013-01-31 16:46:00,
2013-01-31 11:51:00,48.6,27.0,29.51,SSE,158,4.3,10.5,43,0.00,,,0.36,WUHU216HW,2013-01-31 16:51:00,
2013-01-31 11:56:00,48.8,27.7,29.51,South,180,4.7,7.6,44,0.00,,,0.36,WUHU216HW,2013-01-31 16:56:00,
2013-01-31 12:01:00,49.0,27.9,29.51,NNW,338,11.9,11.9,44,0.00,,,0.36,WUHU216HW,2013-01-31 17:01:00,
2013-01-31 12:06:00,49.0,27.3,29.52,SSE,158,3.8,11.9,43,0.00,,,0.36,WUHU216HW,2013-01-31 17:06:00,
2013-01-31 12:11:00,48.6,27.6,29.52,North,0,4.0,11.9,44,0.00,,,0.36,WUHU216HW,2013-01-31 17:11:00,
2013-01-31 12:16:00,48.8,27.2,29.52,NW,315,4.7,7.6,43,0.00,,,0.36,WUHU216HW,2013-01-31 17:16:00,
2013-01-31 12:21:00,49.1,27.5,29.52,West,270,8.9,9.2,43,0.00,,,0.36,WUHU216HW,2013-01-31 17:21:00,
2013-01-31 12:26:00,48.6,27.0,29.52,NW,315,16.1,16.1,43,0.00,,,0.36,WUHU216HW,2013-01-31 17:26:00,
2013-01-31 12:31:00,48.6,25.9,29.51,WSW,248,7.4,16.1,41,0.00,,,0.36,WUHU216HW,2013-01-31 17:31:00,
2013-01-31 12:36:00,48.8,26.7,29.52,NE,45,3.4,16.1,42,0.00,,,0.36,WUHU216HW,2013-01-31 17:36:00,
2013-01-31 12:41:00,49.0,27.3,29.52,West,270,8.9,15.7,43,0.00,,,0.36,WUHU216HW,2013-01-31 17:41:00,
2013-01-31 12:46:00,49.1,26.9,29.53,WNW,293,2.5,15.7,42,0.00,,,0.36,WUHU216HW,2013-01-31 17:46:00,
2013-01-31 12:52:00,49.0,26.7,29.52,West,270,6.9,12.3,42,0.00,,,0.36,WUHU216HW,2013-01-31 17:52:00,
2013-01-31 12:57:00,49.0,26.2,29.52,NNW,338,3.6,12.1,41,0.00,,,0.36,WUHU216HW,2013-01-31 17:57:00,
2013-01-31 13:02:00,49.0,26.2,29.52,East,90,4.3,15.7,41,0.00,,,0.36,WUHU216HW,2013-01-31 18:02:00,
2013-01-31 13:07:00,48.8,26.0,29.53,NNW,338,4.7,15.7,41,0.00,,,0.36,WUHU216HW,2013-01-31 18:07:00,
2013-01-31 13:12:00,48.6,25.4,29.53,NNW,338,4.7,10.1,40,0.00,,,0.36,WUHU216HW,2013-01-31 18:12:00,
2013-01-31 13:17:00,47.9,25.7,29.54,NNW,338,2.5,10.1,42,0.00,,,0.36,WUHU216HW,2013-01-31 18:17:00,
2013-01-31 13:22:00,47.0,25.5,29.55,SSE,158,9.6,13.4,43,0.00,,,0.36,WUHU216HW,2013-01-31 18:22:00,
2013-01-31 13:27:00,47.0,23.9,29.55,WSW,248,13.2,13.4,40,0.00,,,0.36,WUHU216HW,2013-01-31 18:27:00,
2013-01-31 13:32:00,47.2,24.6,29.55,NW,315,12.3,13.2,41,0.00,,,0.36,WUHU216HW,2013-01-31 18:32:00,
2013-01-31 13:37:00,47.3,22.9,29.55,NE,45,6.9,14.1,38,0.00,,,0.36,WUHU216HW,2013-01-31 18:37:00,
2013-01-31 13:42:00,47.5,24.4,29.55,SW,225,6.0,14.1,40,0.00,,,0.36,WUHU216HW,2013-01-31 18:42:00,
2013-01-31 13:47:00,47.9,24.7,29.55,NW,315,6.7,7.2,40,0.00,,,0.36,WUHU216HW,2013-01-31 18:47:00,
2013-01-31 13:52:00,47.5,24.4,29.55,North,0,2.5,7.6,40,0.00,,,0.36,WUHU216HW,2013-01-31 18:52:00,
2013-01-31 13:57:00,47.2,24.0,29.55,North,0,4.7,7.6,40,0.00,,,0.36,WUHU216HW,2013-01-31 18:57:00,
2013-01-31 14:02:00,47.3,25.3,29.55,WSW,248,5.4,8.7,42,0.00,,,0.36,WUHU216HW,2013-01-31 19:02:00,
2013-01-31 14:07:00,47.7,25.7,29.56,WNW,293,3.8,11.4,42,0.00,,,0.36,WUHU216HW,2013-01-31 19:07:00,
2013-01-31 14:12:00,47.9,25.2,29.56,NNW,338,8.3,11.4,41,0.00,,,0.36,WUHU216HW,2013-01-31 19:12:00,
2013-01-31 14:17:00,48.2,25.0,29.57,NNW,338,4.9,11.6,40,0.00,,,0.36,WUHU216HW,2013-01-31 19:17:00,
2013-01-31 14:22:00,48.6,25.9,29.57,WSW,248,4.5,11.6,41,0.00,,,0.36,WUHU216HW,2013-01-31 19:22:00,
2013-01-31 14:27:00,48.8,25.5,29.57,ENE,68,6.7,8.1,40,0.00,,,0.36,WUHU216HW,2013-01-31 19:27:00,
2013-01-31 14:32:00,48.4,23.9,29.57,West,270,5.1,8.1,38,0.00,,,0.36,WUHU216HW,2013-01-31 19:32:00,
2013-01-31 14:37:00,47.9,24.0,29.57,NNE,23,3.4,7.8,39,0.00,,,0.36,WUHU216HW,2013-01-31 19:37:00,
2013-01-31 14:42:00,47.2,23.4,29.57,NNW,338,6.5,10.1,39,0.00,,,0.36,WUHU216HW,2013-01-31 19:42:00,
2013-01-31 14:47:00,46.8,23.8,29.57,NW,315,2.9,11.0,40,0.00,,,0.36,WUHU216HW,2013-01-31 19:47:00,
2013-01-31 14:52:00,46.8,23.8,29.57,NE,45,5.4,11.0,40,0.00,,,0.36,WUHU216HW,2013-01-31 19:52:00,
2013-01-31 14:57:00,46.4,23.4,29.58,WSW,248,6.0,9.8,40,0.00,,,0.36,WUHU216HW,2013-01-31 19:57:00,
2013-01-31 15:02:00,46.4,23.4,29.58,NW,315,12.5,12.5,40,0.00,,,0.36,WUHU216HW,2013-01-31 20:02:00,
2013-01-31 15:07:00,46.3,23.8,29.59,ENE,68,4.0,12.5,41,0.00,,,0.36,WUHU216HW,2013-01-31 20:07:00,
2013-01-31 15:12:00,46.4,24.5,29.59,West,270,4.0,12.5,42,0.00,,,0.36,WUHU216HW,2013-01-31 20:12:00,
2013-01-31 15:17:00,46.4,24.5,29.59,West,270,7.6,13.0,42,0.00,,,0.36,WUHU216HW,2013-01-31 20:17:00,
2013-01-31 15:22:00,46.4,22.8,29.60,NW,315,4.9,16.6,39,0.00,,,0.36,WUHU216HW,2013-01-31 20:22:00,
2013-01-31 15:27:00,46.3,21.2,29.60,North,0,8.5,16.6,37,0.00,,,0.36,WUHU216HW,2013-01-31 20:27:00,
2013-01-31 15:32:00,45.7,20.8,29.60,NNW,338,9.4,9.4,37,0.00,,,0.36,WUHU216HW,2013-01-31 20:32:00,
2013-01-31 15:37:00,45.5,20.6,29.61,NNW,338,11.4,11.4,37,0.00,,,0.36,WUHU216HW,2013-01-31 20:37:00,
2013-01-31 15:42:00,45.4,21.1,29.61,WNW,293,4.3,12.1,38,0.00,,,0.36,WUHU216HW,2013-01-31 20:42:00,
2013-01-31 15:47:00,45.4,22.4,29.62,WNW,293,8.1,12.1,40,0.00,,,0.36,WUHU216HW,2013-01-31 20:47:00,
2013-01-31 15:52:00,45.2,21.0,29.62,North,0,7.4,10.5,38,0.00,,,0.36,WUHU216HW,2013-01-31 20:52:00,
2013-01-31 15:58:00,44.8,20.0,29.62,SW,225,4.5,10.7,37,0.00,,,0.36,WUHU216HW,2013-01-31 20:58:00,
2013-01-31 16:03:00,44.5,19.6,29.63,NE,45,10.5,10.5,37,0.00,,,0.36,WUHU216HW,2013-01-31 21:03:00,
2013-01-31 16:08:00,44.1,19.3,29.63,NNW,338,6.9,11.4,37,0.00,,,0.36,WUHU216HW,2013-01-31 21:08:00,
2013-01-31 16:13:00,43.7,18.3,29.64,WNW,293,6.5,12.1,36,0.00,,,0.36,WUHU216HW,2013-01-31 21:13:00,
2013-01-31 16:18:00,43.6,18.8,29.64,WNW,293,3.8,12.1,37,0.00,,,0.36,WUHU216HW,2013-01-31 21:18:00,
2013-01-31 16:23:00,43.4,19.4,29.64,NW,315,8.7,12.8,38,0.00,,,0.36,WUHU216HW,2013-01-31 21:23:00,
2013-01-31 16:28:00,43.2,19.2,29.64,NW,315,7.6,12.8,38,0.00,,,0.36,WUHU216HW,2013-01-31 21:28:00,
2013-01-31 16:33:00,43.0,19.0,29.65,NNW,338,3.6,10.7,38,0.00,,,0.36,WUHU216HW,2013-01-31 21:33:00,
2013-01-31 16:38:00,42.8,18.8,29.65,NW,315,6.5,10.5,38,0.00,,,0.36,WUHU216HW,2013-01-31 21:38:00,
2013-01-31 16:43:00,42.5,19.2,29.66,WNW,293,8.5,13.0,39,0.00,,,0.36,WUHU216HW,2013-01-31 21:43:00,
2013-01-31 16:48:00,42.5,19.2,29.66,NW,315,6.3,13.0,39,0.00,,,0.36,WUHU216HW,2013-01-31 21:48:00,
2013-01-31 16:53:00,42.1,20.6,29.66,SW,225,1.8,8.5,42,0.00,,,0.36,WUHU216HW,2013-01-31 21:53:00,
2013-01-31 16:58:00,41.9,20.4,29.67,NNW,338,3.4,7.8,42,0.00,,,0.36,WUHU216HW,2013-01-31 21:58:00,
2013-01-31 17:03:00,41.8,20.3,29.67,SW,225,7.4,8.3,42,0.00,,,0.36,WUHU216HW,2013-01-31 22:03:00,
2013-01-31 17:08:00,41.4,20.4,29.68,NW,315,4.7,8.3,43,0.00,,,0.36,WUHU216HW,2013-01-31 22:08:00,
2013-01-31 17:13:00,41.2,20.3,29.68,NNE,23,3.4,7.4,43,0.00,,,0.36,WUHU216HW,2013-01-31 22:13:00,
2013-01-31 17:18:00,41.0,20.1,29.68,NW,315,4.9,7.6,43,0.00,,,0.36,WUHU216HW,2013-01-31 22:18:00,
2013-01-31 17:23:00,40.9,20.4,29.69,North,0,4.7,9.4,44,0.00,,,0.36,WUHU216HW,2013-01-31 22:23:00,
2013-01-31 17:28:00,40.7,21.3,29.70,NW,315,3.6,9.4,46,0.00,,,0.36,WUHU216HW,2013-01-31 22:28:00,
2013-01-31 17:33:00,40.5,20.7,29.70,NNW,338,7.6,9.2,45,0.00,,,0.36,WUHU216HW,2013-01-31 22:33:00,
2013-01-31 17:38:00,40.3,20.5,29.71,NW,315,2.9,11.2,45,0.00,,,0.36,WUHU216HW,2013-01-31 22:38:00,
2013-01-31 17:43:00,40.1,20.3,29.72,NNW,338,4.3,11.2,45,0.00,,,0.36,WUHU216HW,2013-01-31 22:43:00,
2013-01-31 17:48:00,40.0,20.7,29.72,WNW,293,2.0,7.8,46,0.00,,,0.36,WUHU216HW,2013-01-31 22:48:00,
2013-01-31 17:53:00,39.8,21.1,29.72,NW,315,4.0,4.7,47,0.00,,,0.36,WUHU216HW,2013-01-31 22:53:00,
2013-01-31 17:58:00,39.6,20.9,29.73,West,270,3.4,5.8,47,0.00,,,0.36,WUHU216HW,2013-01-31 22:58:00,
2013-01-31 18:03:00,39.2,20.6,29.73,WNW,293,5.4,7.4,47,0.00,,,0.36,WUHU216HW,2013-01-31 23:03:00,
2013-01-31 18:08:00,38.9,19.7,29.74,NE,45,2.5,7.4,46,0.00,,,0.36,WUHU216HW,2013-01-31 23:08:00,
2013-01-31 18:13:00,38.7,20.1,29.75,NW,315,4.0,5.6,47,0.00,,,0.36,WUHU216HW,2013-01-31 23:13:00,
2013-01-31 18:18:00,38.7,20.1,29.74,NW,315,1.6,5.6,47,0.00,,,0.36,WUHU216HW,2013-01-31 23:18:00,
2013-01-31 18:23:00,38.5,19.9,29.74,NNE,23,1.8,4.5,47,0.00,,,0.36,WUHU216HW,2013-01-31 23:23:00,
2013-01-31 18:28:00,38.3,20.8,29.74,NNW,338,3.1,4.5,49,0.00,,,0.36,WUHU216HW,2013-01-31 23:28:00,
2013-01-31 18:33:00,38.0,20.5,29.75,West,270,2.7,4.5,49,0.00,,,0.36,WUHU216HW,2013-01-31 23:33:00,
2013-01-31 18:38:00,37.8,20.4,29.75,NW,315,2.9,5.8,49,0.00,,,0.36,WUHU216HW,2013-01-31 23:38:00,
2013-01-31 18:43:00,37.6,20.2,29.76,North,0,2.5,7.2,49,0.00,,,0.36,WUHU216HW,2013-01-31 23:43:00,
2013-01-31 18:48:00,37.4,20.0,29.76,NNW,338,1.8,7.2,49,0.00,,,0.36,WUHU216HW,2013-01-31 23:48:00,
2013-01-31 18:53:00,37.4,20.0,29.77,NE,45,3.4,6.3,49,0.00,,,0.36,WUHU216HW,2013-01-31 23:53:00,
2013-01-31 18:58:00,37.1,20.2,29.77,West,270,2.5,7.2,50,0.00,,,0.36,WUHU216HW,2013-01-31 23:58:00,
2013-01-31 19:03:00,37.1,20.6,29.77,NNW,338,0.9,7.2,51,0.00,,,0.36,WUHU216HW,2013-02-01 00:03:00,
2013-01-31 19:08:00,36.7,20.4,29.78,West,270,1.3,7.8,51,0.00,,,0.36,WUHU216HW,2013-02-01 00:08:00,
2013-01-31 19:13:00,36.5,20.2,29.78,NW,315,4.0,7.8,51,0.00,,,0.36,WUHU216HW,2013-02-01 00:13:00,
2013-01-31 19:19:00,36.4,20.4,29.78,NNW,338,0.7,4.0,52,0.00,,,0.36,WUHU216HW,2013-02-01 00:19:00,
2013-01-31 19:24:00,36.2,20.3,29.78,WNW,293,4.7,4.7,52,0.00,,,0.36,WUHU216HW,2013-02-01 00:24:00,
2013-01-31 19:29:00,36.0,20.5,29.78,WSW,248,1.8,4.7,53,0.00,,,0.36,WUHU216HW,2013-02-01 00:29:00,
2013-01-31 19:34:00,36.0,20.1,29.79,NW,315,4.3,7.4,52,0.00,,,0.36,WUHU216HW,2013-02-01 00:34:00,
2013-01-31 19:40:00,36.0,20.1,29.79,NNE,23,2.5,7.4,52,0.00,,,0.36,WUHU216HW,2013-02-01 00:40:00,
2013-01-31 19:45:00,35.8,20.3,29.78,SSW,203,1.1,6.3,53,0.00,,,0.36,WUHU216HW,2013-02-01 00:45:00,
2013-01-31 19:50:00,35.6,20.2,29.78,West,270,4.5,9.2,53,0.00,,,0.36,WUHU216HW,2013-02-01 00:50:00,
2013-01-31 19:55:00,35.6,19.8,29.78,WNW,293,1.8,10.3,52,0.00,,,0.36,WUHU216HW,2013-02-01 00:55:00,
2013-01-31 20:00:00,35.6,19.8,29.78,NW,315,2.5,10.3,52,0.00,,,0.36,WUHU216HW,2013-02-01 01:00:00,
2013-01-31 20:05:00,35.5,19.6,29.79,West,270,3.1,6.3,52,0.00,,,0.36,WUHU216HW,2013-02-01 01:05:00,
2013-01-31 20:10:00,35.3,19.5,29.79,NNW,338,3.1,6.9,52,0.00,,,0.36,WUHU216HW,2013-02-01 01:10:00,
2013-01-31 20:15:00,35.1,19.3,29.80,NW,315,2.2,6.9,52,0.00,,,0.36,WUHU216HW,2013-02-01 01:15:00,
2013-01-31 20:20:00,35.1,19.3,29.80,NW,315,5.1,7.6,52,0.00,,,0.36,WUHU216HW,2013-02-01 01:20:00,
2013-01-31 20:25:00,34.9,18.6,29.81,WNW,293,5.4,7.6,51,0.00,,,0.36,WUHU216HW,2013-02-01 01:25:00,
2013-01-31 20:30:00,34.9,18.2,29.80,North,0,3.4,9.4,50,0.00,,,0.36,WUHU216HW,2013-02-01 01:30:00,
2013-01-31 20:35:00,34.9,18.2,29.80,North,0,2.9,9.4,50,0.00,,,0.36,WUHU216HW,2013-02-01 01:35:00,
2013-01-31 20:40:00,34.9,18.2,29.80,NNW,338,3.1,8.5,50,0.00,,,0.36,WUHU216HW,2013-02-01 01:40:00,
2013-01-31 20:45:00,34.9,18.6,29.80,NW,315,3.1,6.9,51,0.00,,,0.36,WUHU216HW,2013-02-01 01:45:00,
2013-01-31 20:50:00,34.9,18.6,29.80,North,0,5.4,8.3,51,0.00,,,0.36,WUHU216HW,2013-02-01 01:50:00,
2013-01-31 20:55:00,34.7,18.9,29.81,WSW,248,1.8,8.3,52,0.00,,,0.36,WUHU216HW,2013-02-01 01:55:00,
2013-01-31 21:00:00,34.6,18.7,29.81,SW,225,3.6,5.8,52,0.00,,,0.36,WUHU216HW,2013-02-01 02:00:00,
2013-01-31 21:05:00,34.6,18.7,29.82,NW,315,4.0,6.7,52,0.00,,,0.36,WUHU216HW,2013-02-01 02:05:00,
2013-01-31 21:10:00,34.6,18.7,29.82,WSW,248,4.7,6.7,52,0.00,,,0.36,WUHU216HW,2013-02-01 02:10:00,
2013-01-31 21:15:00,34.6,18.7,29.82,NNE,23,1.8,7.4,52,0.00,,,0.36,WUHU216HW,2013-02-01 02:15:00,
2013-01-31 21:20:00,34.6,19.1,29.81,NW,315,5.4,7.4,53,0.00,,,0.36,WUHU216HW,2013-02-01 02:20:00,
2013-01-31 21:25:00,34.4,19.4,29.82,North,0,2.7,6.0,54,0.00,,,0.36,WUHU216HW,2013-02-01 02:25:00,
2013-01-31 21:30:00,34.2,19.2,29.82,SE,135,1.1,5.4,54,0.00,,,0.36,WUHU216HW,2013-02-01 02:30:00,
2013-01-31 21:35:00,34.2,20.1,29.82,East,90,3.8,6.3,56,0.00,,,0.36,WUHU216HW,2013-02-01 02:35:00,
2013-01-31 21:40:00,34.2,19.6,29.83,NW,315,3.4,6.3,55,0.00,,,0.36,WUHU216HW,2013-02-01 02:40:00,
2013-01-31 21:45:00,34.2,20.1,29.83,NE,45,1.1,6.3,56,0.00,,,0.36,WUHU216HW,2013-02-01 02:45:00,
2013-01-31 21:50:00,33.8,20.2,29.83,NW,315,4.5,6.9,57,0.00,,,0.36,WUHU216HW,2013-02-01 02:50:00,
2013-01-31 21:55:00,33.7,20.0,29.83,ENE,68,2.7,7.6,57,0.00,,,0.36,WUHU216HW,2013-02-01 02:55:00,
2013-01-31 22:00:00,33.5,19.4,29.84,ENE,68,3.6,7.6,56,0.00,,,0.36,WUHU216HW,2013-02-01 03:00:00,
2013-01-31 22:05:00,33.1,18.2,29.84,West,270,4.0,7.6,54,0.00,,,0.36,WUHU216HW,2013-02-01 03:05:00,
2013-01-31 22:10:00,33.1,18.2,29.85,NNW,338,3.6,7.6,54,0.00,,,0.36,WUHU216HW,2013-02-01 03:10:00,
2013-01-31 22:15:00,32.9,18.5,29.85,East,90,8.9,8.9,55,0.00,,,0.36,WUHU216HW,2013-02-01 03:15:00,
2013-01-31 22:20:00,32.8,18.7,29.85,NNW,338,7.4,8.9,56,0.00,,,0.36,WUHU216HW,2013-02-01 03:20:00,
2013-01-31 22:25:00,32.8,19.2,29.85,ENE,68,1.1,8.9,57,0.00,,,0.36,WUHU216HW,2013-02-01 03:25:00,
2013-01-31 22:30:00,32.6,19.5,29.86,WNW,293,3.6,8.9,58,0.00,,,0.36,WUHU216HW,2013-02-01 03:30:00,
2013-01-31 22:35:00,32.4,18.4,29.86,NE,45,3.4,4.7,56,0.00,,,0.36,WUHU216HW,2013-02-01 03:35:00,
2013-01-31 22:40:00,32.2,18.3,29.86,WNW,293,4.0,8.7,56,0.00,,,0.36,WUHU216HW,2013-02-01 03:40:00,
2013-01-31 22:45:00,32.0,17.2,29.86,West,270,3.4,8.7,54,0.00,,,0.36,WUHU216HW,2013-02-01 03:45:00,
2013-01-31 22:50:00,31.9,16.2,29.86,WNW,293,1.8,6.9,52,0.00,,,0.36,WUHU216HW,2013-02-01 03:50:00,
2013-01-31 22:55:00,31.7,15.1,29.87,North,0,1.8,9.8,50,0.00,,,0.36,WUHU216HW,2013-02-01 03:55:00,
2013-01-31 23:00:00,31.3,13.9,29.87,East,90,3.6,9.8,48,0.00,,,0.36,WUHU216HW,2013-02-01 04:00:00,
2013-01-31 23:05:00,31.3,14.3,29.87,NW,315,1.3,5.8,49,0.00,,,0.36,WUHU216HW,2013-02-01 04:05:00,
2013-01-31 23:10:00,31.1,14.1,29.87,West,270,2.2,5.8,49,0.00,,,0.36,WUHU216HW,2013-02-01 04:10:00,
2013-01-31 23:15:00,31.0,14.1,29.88,NNW,338,4.7,4.9,49,0.00,,,0.36,WUHU216HW,2013-02-01 04:15:00,
2013-01-31 23:20:00,31.0,13.5,29.88,NE,45,2.2,6.0,48,0.00,,,0.36,WUHU216HW,2013-02-01 04:20:00,
2013-01-31 23:25:00,30.8,13.9,29.88,North,0,2.7,6.0,49,0.00,,,0.36,WUHU216HW,2013-02-01 04:25:00,
2013-01-31 23:30:00,30.6,13.1,29.88,NNW,338,2.5,5.6,48,0.00,,,0.36,WUHU216HW,2013-02-01 04:30:00,
2013-01-31 23:35:00,30.4,14.1,29.88,NNW,338,3.6,5.8,50,0.00,,,0.36,WUHU216HW,2013-02-01 04:35:00,
2013-01-31 23:40:00,30.4,14.1,29.89,WSW,248,3.6,6.7,50,0.00,,,0.36,WUHU216HW,2013-02-01 04:40:00,
2013-01-31 23:45:00,30.4,14.1,29.89,NW,315,2.5,6.7,50,0.00,,,0.36,WUHU216HW,2013-02-01 04:45:00,
2013-01-31 23:50:00,30.2,13.3,29.89,NW,315,1.3,5.8,49,0.00,,,0.36,WUHU216HW,2013-02-01 04:50:00,
2013-01-31 23:55:00,30.1,13.7,29.89,SW,225,1.6,5.8,50,0.00,,,0.36,WUHU216HW,2013-02-01 04:55:00,